Wetbulb
62.47 62.91 62.23 62.77 63.06 63.24 62.49 61.84 59.05 55.55 56.10 61.06 64.18 66.32 67.30 70.47 72.46 72.92 72.44 72.19 71.69 71.53 70.57 69.86 70.00 70.93 72.44 72.63 72.42 72.54 72.88 73.18 72.87 72.42 72.19 72.56 73.34 73.70
63.06 62.77 63.32 63.16 63.75 64.28 63.99 62.83 61.35 58.91 56.12 60.26 63.57 63.72 66.22 66.65 68.16 67.86 68.83 71.93 71.36 70.90 70.27 69.54 69.67 70.27 70.80 71.30 71.54 71.52 70.75 71.38 71.49 71.56 70.09 70.98 71.82 72.22
63.40 63.46 62.91 62.81 63.26 62.86 63.00 63.24 62.52 61.88 58.86 61.01 62.48 63.90 64.05 64.56 66.37 67.48 67.50 68.01 68.87 69.90 69.85 69.29 68.55 68.98 69.65 69.75 69.59 69.39 69.46 69.54 69.89 70.05 70.50 70.52 71.00 71.29
61.82 62.12 62.50 64.20 61.01 61.01 61.13 61.63 60.76 62.40 61.75 59.50 61.47 61.93 63.42 65.34 65.66 64.11 67.79 69.66 67.47 68.51 68.50 68.22 68.00 67.71 67.73 67.66 67.25 67.23 66.51 66.55 67.12 67.62 68.76 69.69 70.11 70.75
61.97 61.76 61.84 60.93 59.41 58.63 58.40 59.59 59.35 61.52 61.09 60.31 59.75 61.84 63.29 65.78 65.16 66.75 67.02 65.62 69.40 70.18 68.24 67.19 67.03 66.96 66.60 65.74 65.01 64.14 62.33 62.15 63.03 63.90 65.01 66.47 67.98 68.78
59.06 60.28 62.10 61.15 59.52 57.96 58.32 58.18 58.32 57.69 58.19 58.93 59.75 60.87 63.09 64.82 66.01 64.60 63.70 64.56 66.17 68.04 68.75 69.09 67.80 66.89 66.35 65.41 65.11 64.24 61.42 59.59 59.41 59.77 61.20 61.34 63.01 64.44
58.29 58.07 56.82 62.19 64.90 61.45 59.33 58.23 57.46 56.63 56.67 57.31 57.71 58.98 60.24 60.65 60.90 63.51 62.08 63.50 62.98 64.90 64.50 67.70 67.32 66.66 67.38 66.48 66.35 65.52 62.96 61.52 60.49 60.33 59.83 59.43 59.59 60.66
57.94 57.21 57.07 63.46 63.25 64.42 63.70 62.85 62.25 57.73 56.45 56.41 57.55 58.02 58.37 59.67 59.69 58.79 58.57 58.65 58.65 63.64 63.24 63.60 65.91 63.51 63.62 63.71 64.66 63.81 63.29 63.00 61.65 60.47 59.95 59.77 59.41 59.91
57.99 57.48 56.61 63.08 60.51 58.38 58.89 59.41 59.37 61.88 62.44 58.19 57.25 57.85 58.45 59.43 57.73 55.95 55.83 56.19 57.25 60.50 61.79 60.81 65.16 63.86 62.60 62.33 62.17 62.54 61.86 61.45 60.93 60.47 59.81 59.14 58.45 57.25
58.00 58.65 56.85 56.61 56.61 55.94 54.05 53.35 54.72 56.80 56.71 60.14 59.87 60.16 61.19 59.76 57.62 57.46 56.82 57.37 58.79 59.68 58.05 58.76 62.34 62.21 61.73 60.87 60.86 61.74 60.78 58.60 57.26 56.16 55.18 54.10 52.28 53.50
54.85 53.97 55.81 55.31 58.25 58.39 53.36 52.08 51.92 53.24 58.82 59.10 58.80 59.17 60.06 60.33 59.19 56.94 57.39 55.83 55.12 57.19 54.88 56.58 60.60 60.70 60.49 59.88 58.90 61.11 58.82 56.75 55.52 55.45 55.40 54.43 51.35 51.21
52.16 52.79 58.58 55.77 57.61 56.42 52.06 50.62 49.50 49.24 53.12 53.94 53.88 54.69 56.14 56.98 61.11 57.87 58.02 54.44 53.46 55.08 56.00 53.55 55.33 55.45 57.68 62.06 59.73 57.66 57.19 55.98 54.31 53.68 54.44 54.20 51.87 49.82
49.89 49.09 53.93 56.67 54.68 54.35 54.37 50.68 50.51 51.33 53.24 51.37 51.72 53.16 54.45 55.42 59.86 60.46 59.11 56.10 53.83 54.36 56.78 52.45 51.71 49.39 52.41 52.03 48.91 53.58 57.25 57.47 57.23 55.96 52.74 52.21 51.19 50.81
46.63 47.99 54.00 54.75 53.64 53.53 53.59 54.15 54.07 54.98 51.52 51.08 51.55 52.29 51.94 55.91 59.55 59.94 59.34 56.96 55.52 53.81 55.15 50.97 47.74 48.52 46.96 45.58 46.62 49.31 49.87 49.58 53.23 51.00 53.41 53.15 52.07 51.82
48.64 50.01 52.79 52.46 51.78 51.36 53.92 54.89 55.15 50.90 49.86 50.13 50.31 50.89 49.61 53.06 53.62 54.08 53.65 54.35 54.17 54.74 56.39 52.97 49.28 49.11 46.96 44.50 45.58 48.21 48.85 48.72 50.46 50.21 50.44 50.23 49.89 49.80
54.17 50.99 51.96 52.52 52.70 52.38 53.70 53.51 52.97 51.62 50.86 50.76 50.34 49.59 49.63 51.02 50.56 49.46 48.81 49.22 51.02 51.05 53.09 55.21 52.19 49.63 47.68 47.90 47.83 46.87 47.14 47.25 49.40 49.45 47.95 48.23 49.25 49.56
49.36 49.37 50.53 48.47 47.69 48.42 50.37 51.52 51.62 51.02 51.87 52.36 52.04 51.54 50.70 50.91 50.61 51.15 50.61 47.57 47.36 46.28 47.50 51.24 53.79 51.80 50.80 48.92 47.94 48.23 47.72 48.12 49.48 48.54 47.53 46.78 47.55 48.37
48.07 46.18 45.96 46.81 47.74 48.11 48.37 49.73 51.99 53.90 52.28 52.03 52.34 51.84 51.39 50.19 49.80 50.15 50.44 48.34 46.62 46.34 46.93 48.29 51.15 51.77 51.23 52.43 55.59 51.71 48.81 49.16 48.41 48.17 47.60 46.40 46.32 48.84
46.50 46.18 47.13 47.82 48.50 48.91 48.57 49.56 51.34 52.29 53.23 53.32 53.05 52.58 52.28 51.25 49.99 49.23 48.58 48.84 49.29 48.50 48.59 47.64 50.23 50.55 47.95 46.89 50.56 55.04 50.93 48.48 47.56 47.62 48.17 46.78 46.76 48.83
48.43 48.29 48.66 49.70 49.80 49.64 50.02 49.92 50.68 51.39 51.83 52.13 51.94 52.03 51.21 50.48 49.42 49.09 49.21 48.69 48.62 48.39 47.81 47.58 49.57 50.72 49.44 49.35 48.81 51.24 52.02 49.63 47.99 47.56 47.71 47.77 49.31 53.20
51.26 53.53 54.18 54.32 55.33 55.45 54.75 54.94 54.58 54.13 54.68 53.77 53.72 53.69 52.87 51.30 50.57 50.48 50.36 48.71 48.54 48.16 48.02 48.41 50.58 54.74 51.75 50.98 48.49 48.91 51.06 51.02 51.38 50.65 49.71 48.56 47.80 47.25
55.81 55.21 55.81 55.31 54.49 55.19 55.41 54.78 54.02 53.22 53.58 54.72 55.38 55.67 55.45 54.24 51.80 51.74 51.39 49.42 48.84 48.52 47.95 48.74 49.29 48.45 49.38 49.54 48.77 48.45 49.11 50.60 51.91 53.09 54.13 54.05 48.58 45.91
53.09 53.03 54.30 53.90 52.58 52.94 52.92 50.94 49.91 49.92 49.08 48.38 48.89 50.21 51.25 52.72 56.07 56.49 55.91 55.26 53.06 50.35 48.56 48.37 48.23 48.63 48.85 49.08 49.97 49.23 48.93 49.69 50.38 53.15 53.81 54.02 54.37 54.50
MSLP
1016.43 1016.50 1016.60 1016.67 1016.66 1016.50 1016.33 1016.28 1016.44 1016.80 1016.41 1015.51 1014.95 1014.46 1014.14 1013.93 1013.71 1013.61 1013.49 1013.11 1013.20 1013.30 1013.37 1013.34 1013.53 1013.65 1013.87 1014.07 1014.36 1014.65 1014.82 1014.91 1014.96 1015.40 1015.76 1015.98 1016.23 1016.38
1016.48 1016.66 1016.67 1016.68 1016.76 1016.75 1016.59 1016.32 1016.20 1016.35 1016.57 1016.01 1015.47 1014.83 1014.15 1013.75 1013.49 1013.46 1013.29 1013.04 1012.93 1013.02 1013.09 1013.07 1013.20 1013.22 1013.45 1013.61 1013.95 1014.18 1014.39 1014.56 1014.63 1014.82 1015.26 1015.51 1015.50 1015.44
1016.33 1016.44 1016.78 1016.82 1016.89 1016.85 1016.78 1016.68 1016.54 1016.40 1016.65 1016.19 1015.95 1015.19 1014.76 1014.28 1013.67 1013.34 1013.39 1013.14 1013.03 1013.02 1012.89 1012.67 1012.82 1012.93 1013.06 1013.47 1013.71 1013.83 1014.05 1014.24 1014.38 1014.37 1014.54 1014.72 1014.80 1014.69
1016.36 1016.47 1016.67 1016.75 1016.82 1016.88 1016.78 1016.81 1016.82 1016.50 1016.51 1016.43 1016.05 1015.50 1014.91 1014.53 1014.01 1013.70 1013.35 1013.07 1012.92 1012.45 1012.35 1012.30 1012.46 1012.72 1013.25 1013.28 1013.45 1013.61 1013.64 1013.96 1014.18 1014.24 1014.36 1014.43 1014.30 1014.24
1016.19 1016.33 1016.39 1016.45 1016.75 1016.91 1017.02 1016.91 1016.90 1016.80 1016.80 1016.68 1016.44 1015.70 1015.16 1014.77 1014.37 1013.98 1013.75 1013.49 1012.79 1012.34 1012.05 1012.17 1012.49 1012.87 1012.90 1013.20 1013.44 1013.47 1013.66 1013.66 1013.74 1013.89 1013.94 1014.07 1014.11 1014.11
1016.24 1016.14 1016.09 1016.10 1016.35 1016.57 1016.95 1017.01 1016.92 1016.94 1016.94 1016.81 1016.52 1016.17 1015.80 1015.14 1014.91 1014.79 1014.57 1014.07 1013.47 1012.63 1012.37 1012.15 1012.44 1012.90 1013.08 1013.14 1013.28 1013.45 1013.57 1013.67 1013.72 1013.95 1014.06 1014.11 1014.16 1014.18
1016.33 1016.18 1016.02 1015.81 1015.93 1016.11 1016.49 1016.74 1016.78 1016.90 1016.87 1016.81 1016.59 1016.39 1016.18 1015.89 1015.71 1015.42 1015.23 1014.83 1014.19 1013.70 1013.23 1013.14 1012.87 1013.12 1013.30 1013.39 1013.47 1013.47 1013.67 1013.71 1013.80 1013.86 1013.95 1014.06 1014.16 1014.12
1016.63 1016.31 1016.06 1015.81 1015.99 1016.02 1016.18 1016.32 1016.41 1016.53 1016.63 1016.72 1016.60 1016.47 1016.21 1015.94 1015.79 1015.63 1015.63 1015.49 1015.18 1014.19 1014.05 1013.77 1013.51 1013.55 1013.67 1013.59 1013.43 1013.68 1013.65 1013.76 1013.74 1013.80 1013.88 1013.97 1014.06 1014.14
1016.63 1016.47 1016.35 1016.03 1016.00 1016.19 1016.18 1016.13 1016.08 1016.01 1015.83 1015.94 1016.16 1016.19 1016.05 1015.80 1015.78 1015.72 1015.73 1015.76 1015.45 1014.67 1014.47 1014.14 1013.84 1013.89 1013.67 1013.72 1013.80 1013.92 1013.80 1013.79 1013.94 1014.08 1014.05 1013.93 1013.86 1013.93
1016.72 1016.35 1016.10 1016.06 1016.04 1016.15 1016.18 1016.07 1015.90 1015.76 1015.58 1015.57 1015.65 1015.51 1015.55 1015.48 1015.63 1015.65 1015.56 1015.55 1015.16 1014.86 1014.52 1014.40 1013.98 1014.03 1013.90 1013.78 1013.97 1014.06 1013.93 1013.98 1014.11 1014.20 1014.08 1013.96 1013.94 1013.83
1016.61 1016.25 1015.98 1016.15 1016.18 1016.01 1015.98 1016.05 1015.99 1015.65 1015.23 1015.18 1015.12 1015.01 1014.93 1014.90 1015.01 1015.35 1015.43 1015.55 1015.48 1015.17 1014.84 1014.66 1014.21 1014.13 1014.15 1014.00 1013.92 1014.02 1014.00 1014.08 1014.18 1014.16 1014.03 1014.01 1014.02 1014.03
1016.54 1016.21 1015.96 1015.88 1016.09 1015.92 1015.89 1016.08 1016.15 1015.87 1015.57 1015.26 1014.88 1014.60 1014.45 1014.39 1014.42 1014.66 1015.04 1015.49 1015.60 1015.33 1014.88 1014.83 1014.62 1014.48 1014.23 1014.05 1013.96 1014.01 1014.08 1014.12 1014.07 1014.01 1014.02 1013.95 1014.10 1014.18
1016.37 1016.27 1015.95 1015.80 1015.90 1015.90 1015.80 1015.89 1015.90 1015.82 1015.65 1015.74 1015.40 1014.80 1014.38 1013.96 1013.87 1013.82 1014.17 1014.84 1015.18 1015.15 1014.54 1014.65 1014.87 1014.80 1014.78 1014.51 1014.28 1014.07 1013.98 1013.94 1013.86 1013.75 1013.92 1014.05 1014.21 1014.22
1016.02 1015.82 1015.70 1015.57 1015.50 1015.51 1015.59 1015.46 1015.43 1015.65 1015.83 1015.88 1015.62 1015.06 1014.55 1014.03 1013.66 1013.69 1013.85 1014.12 1014.42 1014.48 1014.37 1014.45 1014.82 1015.00 1015.20 1015.26 1014.99 1014.45 1014.20 1013.99 1013.71 1013.73 1013.68 1013.74 1013.86 1014.09
1016.21 1015.68 1015.51 1015.40 1015.29 1015.17 1015.09 1015.08 1015.14 1015.41 1015.59 1015.68 1015.61 1015.21 1014.56 1014.16 1014.04 1013.98 1014.00 1014.11 1014.13 1014.10 1014.15 1014.24 1014.49 1014.78 1015.15 1015.32 1015.30 1014.92 1014.62 1014.13 1013.93 1013.84 1013.84 1013.87 1013.93 1013.99
1015.81 1015.49 1015.19 1015.00 1014.97 1014.91 1014.73 1014.68 1014.80 1014.96 1015.29 1015.18 1015.04 1014.80 1014.47 1014.32 1014.17 1014.09 1014.27 1014.18 1014.32 1013.96 1013.57 1013.63 1013.92 1014.41 1014.98 1015.10 1015.18 1014.97 1014.87 1014.75 1014.18 1014.03 1013.93 1013.97 1013.85 1013.80
1015.66 1015.82 1015.20 1015.07 1014.87 1014.74 1014.39 1014.20 1014.28 1014.39 1014.62 1014.51 1014.74 1014.70 1014.60 1014.40 1014.08 1013.74 1013.76 1013.93 1014.18 1014.13 1013.83 1013.43 1013.52 1013.86 1014.24 1014.50 1014.74 1014.41 1014.48 1014.41 1013.97 1013.85 1013.89 1013.98 1013.49 1013.24
1015.32 1015.75 1015.80 1015.29 1015.10 1014.69 1014.41 1014.10 1013.82 1013.75 1013.76 1013.81 1013.97 1014.08 1014.04 1013.94 1013.84 1013.54 1013.56 1013.76 1013.98 1013.88 1013.81 1013.65 1013.74 1013.96 1013.98 1013.51 1013.34 1013.50 1013.86 1013.83 1013.45 1013.45 1013.61 1013.87 1013.63 1012.73
1014.70 1015.04 1015.39 1014.98 1014.55 1014.27 1014.04 1013.89 1013.65 1013.16 1012.98 1013.11 1013.25 1013.16 1013.12 1013.14 1013.42 1013.26 1013.32 1013.50 1013.54 1013.42 1013.33 1013.32 1013.46 1013.68 1013.98 1013.70 1012.60 1012.53 1012.90 1013.02 1013.07 1013.23 1013.17 1013.44 1013.32 1012.53
1014.48 1014.49 1014.47 1014.37 1014.11 1013.69 1013.55 1013.38 1013.00 1012.73 1012.61 1012.46 1012.60 1012.34 1012.26 1012.37 1012.65 1012.77 1012.80 1012.98 1013.03 1012.91 1012.85 1012.70 1012.82 1012.83 1012.97 1012.78 1012.45 1011.89 1011.68 1011.89 1012.39 1012.44 1012.54 1012.43 1012.20 1011.91
1014.48 1014.40 1014.16 1014.00 1013.79 1013.55 1013.31 1013.10 1012.81 1012.44 1012.11 1012.03 1011.99 1012.22 1012.33 1012.46 1012.47 1012.29 1012.17 1012.17 1012.30 1012.45 1012.46 1012.21 1011.51 1011.14 1011.62 1011.88 1012.14 1011.92 1011.10 1010.74 1010.68 1011.13 1011.31 1011.75 1011.83 1011.78
1014.50 1014.47 1014.18 1014.08 1013.97 1013.84 1013.48 1013.35 1013.31 1013.32 1013.22 1013.01 1012.69 1012.61 1012.43 1012.18 1012.16 1012.20 1012.12 1012.13 1012.00 1011.89 1011.60 1011.15 1010.70 1010.98 1011.39 1011.47 1011.38 1011.22 1010.75 1010.09 1009.97 1009.99 1010.13 1010.14 1010.71 1010.71
1014.62 1014.64 1014.34 1014.14 1014.18 1014.02 1014.03 1014.13 1014.23 1014.18 1014.31 1014.07 1014.07 1013.71 1012.88 1012.69 1012.08 1011.89 1011.55 1011.69 1011.68 1011.41 1011.18 1010.96 1010.65 1010.60 1010.41 1010.35 1010.31 1010.36 1010.24 1009.90 1009.68 1009.70 1009.34 1008.77 1008.81 1008.75
Wind_Speed
3 4 2 1 2 1 2 0 4 1 2 4 2 1 3 2 6 5 6 8 12 11 12 13 11 11 10 10 10 12 12 17 18 17 20 22 24 24
1 4 3 2 3 3 2 1 1 3 1 2 2 3 5 4 5 4 6 8 10 11 11 12 12 12 11 10 8 9 8 8 10 10 11 13 15 21
3 4 3 2 3 3 3 2 3 2 2 3 2 3 3 5 5 5 5 3 4 12 15 14 11 11 11 5 6 5 5 7 9 8 10 11 11 11
2 3 3 2 4 4 3 4 4 3 2 1 2 2 3 3 4 2 1 3 4 7 8 11 11 9 5 8 7 7 8 7 8 8 9 11 11 11
4 2 2 3 2 2 2 3 3 3 3 1 2 2 2 3 4 3 3 3 3 6 4 5 1 7 9 7 6 6 7 7 7 7 7 8 8 9
3 3 2 1 2 2 3 3 2 3 2 1 1 2 2 3 3 3 4 3 3 5 6 8 6 5 5 4 2 2 5 5 4 3 4 4 6 6
1 1 2 1 7 5 2 1 1 1 1 1 1 1 1 2 2 2 2 3 3 4 4 4 3 3 3 5 1 4 5 5 4 3 2 2 3 4
1 2 0 5 4 3 2 4 2 1 2 1 0 0 2 1 1 2 2 3 4 3 4 3 1 2 1 1 4 4 7 7 6 6 5 3 2 2
3 3 3 2 5 2 2 5 4 5 2 4 3 3 2 3 1 2 1 2 3 4 2 2 0 1 0 2 3 5 6 6 6 6 5 3 1 3
3 6 6 5 4 4 1 3 4 4 5 2 4 4 5 3 2 3 2 3 3 3 2 1 1 1 0 0 4 3 3 3 2 0 1 3 7 6
4 6 3 4 7 6 3 3 5 5 5 6 6 6 7 6 5 1 2 3 2 2 3 1 2 1 1 1 3 6 3 3 4 4 2 4 8 8
1 4 8 7 9 5 2 1 4 5 5 7 8 7 6 6 7 5 4 2 1 2 2 2 3 3 1 1 1 2 1 6 7 7 5 4 6 4
2 2 2 6 7 5 3 3 5 3 5 4 5 5 5 5 4 5 6 4 3 3 3 2 1 2 2 3 2 2 3 3 3 2 6 7 3 3
4 3 4 8 8 6 4 7 8 6 2 4 4 4 4 3 2 3 5 4 3 4 2 3 1 2 1 2 3 4 1 1 1 0 0 2 5 6
4 6 8 9 8 6 8 10 7 2 3 2 3 3 3 2 2 1 1 3 3 4 4 4 3 3 3 3 2 2 3 2 3 1 2 2 2 1
7 5 5 6 6 7 4 4 4 4 4 4 4 3 3 2 2 3 3 2 1 3 3 6 6 5 2 3 3 2 3 2 2 0 1 1 2 3
2 3 3 2 4 4 4 4 3 4 4 4 4 4 3 2 3 3 3 2 2 2 3 3 3 5 4 5 2 4 2 2 3 3 1 1 3 4
2 2 3 3 5 4 4 5 4 4 5 5 5 5 5 4 4 2 2 3 4 3 3 2 2 1 2 5 12 6 3 3 3 3 2 2 3 4
3 3 4 5 5 5 5 4 5 5 3 5 5 5 5 4 4 3 3 3 3 3 5 3 3 4 3 4 4 10 5 4 3 2 4 4 4 6
1 3 4 4 5 4 4 4 4 5 4 4 4 5 5 5 4 5 4 4 4 3 3 3 4 5 6 7 5 4 16 5 5 4 3 2 5 6
2 2 0 1 3 3 4 4 5 4 3 1 2 1 2 2 4 4 4 6 5 3 5 5 7 9 1 3 0 3 5 18 7 7 4 4 3 2
3 3 3 4 5 5 4 5 6 7 6 5 4 4 3 2 1 4 4 4 4 5 5 5 5 2 4 6 6 5 4 4 9 17 12 13 7 5
2 3 3 3 3 4 5 6 6 6 7 6 7 6 6 7 5 3 2 4 5 5 4 5 3 3 4 6 7 5 5 5 3 6 6 18 21 19
Wind_Direction
70 57 69 64 37 2 335 114 153 98 308 323 16 328 338 272 238 219 231 243 239 234 227 222 229 218 225 228 241 248 235 228 230 222 226 229 225 223
92 66 49 66 60 21 20 48 94 147 157 227 301 307 309 307 282 257 252 258 250 236 247 236 224 222 226 238 239 248 240 235 234 230 227 227 230 239
63 106 55 57 66 49 32 31 45 88 134 305 273 289 303 287 293 271 292 294 267 239 245 243 229 228 225 220 248 240 232 244 258 255 254 248 248 257
54 85 84 66 52 41 40 36 34 12 83 359 285 290 254 295 265 251 292 337 314 253 236 223 209 215 178 209 220 239 240 230 238 245 244 250 259 260
103 122 152 108 61 41 50 42 15 14 23 74 288 294 295 2 343 6 360 336 305 6 306 240 223 151 204 211 219 222 242 241 237 249 250 247 244 257
114 102 126 142 143 92 75 50 40 37 15 16 307 322 341 324 356 10 336 346 321 353 24 40 141 201 235 193 219 215 217 237 239 233 227 256 267 265
152 134 60 270 193 160 127 312 37 24 355 41 63 10 324 346 16 327 313 309 300 356 353 13 57 80 77 78 120 123 134 149 155 159 169 193 231 252
331 279 102 101 140 154 96 17 232 220 285 201 233 3 298 266 334 1 336 8 328 356 357 317 34 79 162 199 92 139 142 140 138 137 140 140 183 229
282 271 285 130 136 148 356 357 344 342 262 181 195 215 246 228 223 332 290 230 250 297 333 286 310 183 218 104 169 178 146 131 128 142 152 167 221 261
281 266 231 214 197 171 86 2 347 342 14 0 236 253 242 252 196 197 227 272 282 272 340 243 316 244 231 207 198 208 124 100 106 51 345 2 21 36
330 352 193 193 214 170 101 22 338 315 322 350 349 331 298 257 203 118 0 42 320 300 349 346 352 13 233 256 226 226 205 205 228 251 285 353 24 31
302 343 359 182 188 178 130 76 323 292 333 337 340 332 306 282 214 183 156 164 236 322 279 35 350 4 313 198 245 229 226 252 249 254 267 303 29 31
238 273 241 165 185 208 190 194 228 257 320 324 307 301 298 285 221 192 174 159 171 242 243 118 271 355 356 328 329 339 205 250 229 259 232 247 172 159
239 239 238 215 222 243 259 247 246 276 304 309 306 312 319 327 284 174 188 195 199 207 229 136 187 153 134 340 282 334 279 263 176 228 107 124 161 215
251 234 242 263 283 295 253 263 277 268 243 254 273 273 258 283 4 57 278 256 257 240 206 181 157 167 153 194 236 277 336 333 358 76 81 98 147 145
259 269 261 255 246 256 292 254 240 223 222 236 239 235 294 299 233 203 218 205 208 297 238 208 186 158 192 223 188 251 232 250 323 288 130 176 225 212
192 299 318 325 308 301 294 274 251 234 228 229 239 257 262 240 253 196 208 151 189 220 288 309 211 193 199 165 253 226 227 247 227 210 134 309 282 262
126 246 280 277 272 281 291 298 297 281 234 229 228 222 234 234 250 249 186 199 209 237 232 244 153 97 354 268 200 248 215 227 222 209 174 160 287 277
180 216 249 254 265 271 262 243 261 264 249 228 230 227 220 225 210 231 230 214 246 228 238 210 173 157 174 230 282 215 184 210 182 228 206 190 208 261
250 234 253 275 276 268 281 268 264 255 236 242 249 231 207 196 209 224 222 216 226 236 256 214 194 191 182 211 214 247 201 185 181 210 237 219 242 295
295 305 224 29 3 3 358 343 331 318 306 247 165 218 269 228 270 258 245 227 217 224 246 248 238 211 186 80 150 260 256 218 186 188 200 185 232 273
39 12 29 30 9 359 6 14 10 13 5 359 7 359 354 1 317 292 267 265 256 238 242 252 266 164 175 190 225 224 247 265 217 232 213 204 177 217
61 351 49 39 18 28 25 32 27 21 16 12 1 348 8 348 334 283 304 304 268 267 248 269 253 188 218 198 207 222 223 248 250 262 245 229 230 234